Погода в Гаррахове

Чехия     50°46′29″N   15°25′32″E
темп.,
°C
ветер,
м/с
пор.,
м/с
влажн.,
%
обл.,
%
осадки,
мм/ч
давл.,
гПа
погр.,
м
28 июля, ср
ср2823:00+16юв118498 0.1 101417
02:00+15юз1192100 1.8 101415
05:00+16ю1191100 0.8 101418
08:00+17ююз239059 0.8 101486
11:00+19юз147251 0.0 1013419
14:00+19юз247569 0.6 1013560
17:00+19з356995 0.0 1014853
20:00+16зюз228499 0.1 101485
29 июля, чт
чт2923:00+13юз21988 0.0 101533
02:00+11юз129813 0.0 101537
05:00+11ююз229930 0.0 101543
08:00+14ююз258852 0.0 1015471
11:00+17юз486728 0.1 10151244
14:00+20зюз694711 0.1 10141804
17:00+21юз595037 0.0 10131981
20:00+16зюз27670 0.0 1013350
30 июля, пт
пт3023:00+12ююз11840 0.0 101410
02:00+12ююз11858 0.0 101315
05:00+11ю118899 0.0 101323
08:00+16ююз26685 0.0 1013402
11:00+19юз47585 0.0 10121097
14:00+22юз58520 0.0 10101492
17:00+23юз47500 0.0 10091739
20:00+19ююз238046 0.1 100961
31 июля, сб
сб3123:00+16ююз2182100 0.1 100925
02:00+15юз3993100 2.1 1009305
05:00+14зюз2399100 0.2 1009100
08:00+14зюз397496 0.2 1010842
11:00+17зюз58597 0.0 10101262
14:00+20зюз594666 0.0 10091974
17:00+18з375796 0.0 10101578
20:00+15зсз11764 0.1 101111
1 августа, вс
вс123:00+12з01835 0.0 101211
02:00+11ююз0183100 0.0 101211
05:00+11ю0180100 0.0 101110
08:00+15юз0170100 0.0 101095
11:00+18зсз1155100 0.0 10091450
14:00+16с3478100 1.1 1009719
17:00+13юв1195100 3.7 1010143
20:00+12юз1298100 3.9 101075